www.pogodaiklimat.ru

АРХИВ ПОГОДЫ в Барроу

Время (UTC), дата Ветер
(напр.,м/с)
 
Видим.   Явления Облачность Т
(С)
Тd
(С)
f
(%)
Тe
(С)
Тes
(С)
Комфортность

P
(гПа)

Po
(гПа)
Тmin
(С)
Tmax
(С)
R
(мм)
SD
(см)
05:53 21.02 СВ  16 км    10/10 180 м  -16.7  -18.3  87  -23  -23    1017.5  1015.6         
06:19 21.02 С  16 км    10/10 120 м  -16.7  -17.2  96  -23  -23      1015.6         
06:53 21.02 СВ  5 км  дымка  10/10 90 м  -15.6  -16.7  91  -23  -23    1017.6  1015.9         
07:53 21.02 СВ  11 км    10/10 120 м  -15.0  -16.1  91  -23  -23    1017.6  1015.9         
08:51 21.02 СВ  4 км  дымка  10/10 120 м  -14.0  -16.0  85  -23  -23      1015.9         
08:53 21.02 СВ  3 км  дымка  10/10 120 м  -14.4  -15.0  95  -23  -23    1017.7  1015.9         
08:56 21.02 СВ  2 км  дымка  10/10 150 м  -14.4  -15.0  95  -22  -22      1015.9         
09:00 21.02 СВ  1 км  дымка  10/10 120 м  -14.4  -15.0  95  -23  -23      1015.9         
09:03 21.02 СВ  800 м  переохлажденный туман  10/10 150 м  -14.4  -15.0  95  -23  -23      1015.9         
09:16 21.02 СВ  2 км  дымка  10/10 150 м  -13.9  -15.0  91  -22  -22      1015.9         
09:24 21.02 СВ  800 м  переохлажденный туман  ?/?  -13.9  -15.0  91  -22  -22      1015.9         
09:51 21.02 СВ  800 м  переохлажденный туман  ?/?  -14.0  -14.0  100  -22  -22      1015.9         
09:53 21.02 СВ  800 м  переохлажденный туман  ?/?  -13.9  -14.4  96  -22  -22    1017.7  1015.9         
10:51 21.02 СВ  1 км  дымка  ?/?  -13.0  -14.0  92  -20  -20      1015.9         
10:53 21.02 СВ  1 км  дымка  ?/?  -13.9  -14.4  96  -22  -22    1017.7  1015.9  -18.3  -13.3     
11:07 21.02 СВ  2 км  дымка  10/10 120 м  -13.3  -14.4  91  -20  -20      1015.9         
11:22 21.02 СВ  1 км  дымка  ?/?  -13.9  -14.4  96  -20  -20      1015.9         
11:35 21.02 СВ  800 м  переохлажденный туман  ?/?  -13.3  -14.4  91  -20  -20      1015.9         
11:53 21.02 СВ  400 м  переохлажденный туман  ?/?  -13.3  -14.4  91  -20  -20    1017.7  1015.9         
12:24 21.02 СВ  2 км  слабый снег, дымка  ?/?  -13.3  -14.4  91  -21  -21      1015.9         
12:36 21.02 СВ  800 м  переохлажденный туман  ?/?  -13.3  -14.4  91  -20  -20      1015.9         
12:44 21.02 СВ  2 км  дымка  ?/?  -13.3  -14.4  91  -20  -20      1015.9         
12:50 21.02 СВ  3 км  дымка  10/10 150 м  -13.0  -14.0  92  -20  -20      1015.9         
12:53 21.02 СВ  3 км  дымка  10/10 150 м  -13.3  -14.4  91  -20  -20    1017.9  1015.9         
13:03 21.02 СВ  1 км  дымка  ?/?  -13.3  -14.4  91  -20  -20      1016.3         
13:10 21.02 СВ  1 км  слабый снег, дымка  ?/?  -13.3  -14.4  91  -20  -20      1016.3         
13:33 21.02 СВ  2 км  слабый снег, дымка  ?/?  -13.3  -14.4  91  -21  -21      1016.3         
13:42 21.02 СВ  3 км  слабый снег, дымка  10/10 150 м  -13.3  -15.0  87  -21  -21      1016.3         
13:51 21.02 СВ  6 км  слабый снег, дымка  10/10 150 м  -14.0  -15.0  92  -24  -24      1016.6         
13:53 21.02 СВ  6 км  слабый снег, дымка  10/10 150 м  -13.9  -15.6  87  -22  -22    1018.3  1016.6         
14:53 21.02 СВ  8 км  дымка  10/10 270 м  -15.0  -16.7  87  -23  -23    1018.5  1016.6         
15:53 21.02 СВ  13 км    10/10 240 м  -17.2  -18.9  87  -26  -26    1019.2  1017.3         
16:22 21.02 СВ  16 км    10/10 210 м  -18.0  -19.0  92  -27  -27      1017.6         
16:53 21.02 СВ  16 км    10/10 990 м  -17.8  -19.4  87  -26  -26    1019.5  1017.6  -17.8  -13.3     
17:53 21.02 СВ  16 км    10/10 900 м  -16.7  -18.3  87  -26  -26    1019.6  1017.6         
18:53 21.02 СВ  16 км    2/2 960 м  -18.3  -20.0  86  -27  -27    1020.1  1018.3         
19:53 21.02 СВ  16 км    8/8 1650 м  -16.7  -18.9  83  -26  -26    1020.7  1019.0         
20:53 21.02 СВ  16 км    ясно  -17.2  -19.4  83  -26  -26    1020.9  1019.0         
21:53 21.02 СВ  16 км    ясно  -18.3  -20.6  82  -28  -28    1021.4  1019.6         
22:53 21.02 СВ  16 км    ясно  -19.4  -21.7  82  -29  -29    1021.9  1020.0  -19.4  -16.7     
23:53 21.02 СВ  16 км    ясно  -20.0  -22.2  83  -30  -29    1022.3  1020.3         
00:53 22.02 СВ  16 км    ясно  -21.1  -23.3  82  -32  -32  опасность
обморожения 
1022.4  1020.7         
01:53 22.02 СВ  16 км    ясно  -22.8  -25.0  82  -34  -34  опасность
обморожения 
1022.8  1021.0         
02:53 22.02 СВ  16 км    ясно  -22.8  -25.0  82  -35  -35  опасность
обморожения 
1023.1  1021.3         
03:53 22.02 В  16 км    ясно  -26.1  -28.3  82  -37  -37  опасность
обморожения 
1023.6  1021.7         
04:53 22.02 В  16 км    ясно  -26.7  -28.9  82  -39  -39  опасность
обморожения 
1023.8  1022.0  -26.7  -19.4     
05:53 22.02 В  16 км    ясно  -27.2  -29.4  81  -39  -39  опасность
обморожения 
1024.0  1022.0         
06:53 22.02 В  16 км    ясно  -27.8  -30.0  81  -41  -41  опасность
обморожения 
1024.2  1022.3         

 

Местоположение метеостанции Wiley Post-Will Rogers Memorial Airport: широта 71.2853 долгота -156.7658 высота над уровнем моря 13 м.

В архиве по умолчанию представлена погода в Барроу за последние 1-2 суток. Обновление информации о фактической погоде в базе происходит ежечасно! Архивные данные за месяц целиком и за предыдущие месяцы Вы можете получить, выбрав интересующий диапазон дат из раскрывающегося списка и нажав кнопку "Ввод!".

Внимание! Архив погоды МЕТАР в базе сайта в настоящее время начинается c 1 января 2011 г. Нет смысла пытаться выбрать более раннюю дату.

Внимание! Время в таблицах - всемирное. Для получения местного времени необходимо прибавить поправку, которая в Барроу равна -9 ч.

Ветер - указаны скорость ветра в м/с и направление, откуда дует ветер: С - северный, СВ - северо-восточный, В - восточный, ЮВ - юго-восточный, Ю - южный, ЮЗ - юго-западный, З - западный, СЗ - северо-западный.
Видимость - горизонтальная дальность видимости в метрах или километрах. При видимости от 1 до 10 км при отсутствии осадков обычно наблюдается дымка, при ухудшении видимости до 1 км и менее - туман. В сухую погоду видимость может ухудшаться дымом, пылью или мглою.
Атмосферные явления - указаны явления, наблюдавшиеся в указанный момент времени.
Облачность - указаны через наклонную черту верхняя и нижняя облачность в баллах и высота нижней границы облаков в метрах. Внимание: облачность, как и прочие метеорологические величины в США измеряются автоматическими метеостанциями. Указанные значения в баллах носят условный характер и показывают процент времени, в течение которого, в среднем, лазерный луч высотомера отражался от облаков обратно.
T - Температура воздуха - температура, измеренная на высоте 2 м над землей.
Td - Температура точки росы - температура, при понижении до которой содержащийся в воздухе водяной пар достигнет насыщения.
f - Относительная влажность воздуха - влажноcть воздуха, измеренная на высоте 2 м над землей.
Te - Эффективная температура - температура, которую ощущает одетый по сезону человек в тени. Характеристика душности погоды. При расчете учитывается влияние влажности воздуха и скорости ветра на теплоощущения человека.
Tes - Эффективная температура на солнце - температура, которую ощущает человек, с поправкой на солнечный нагрев. Характеристика знойности погоды. Зависит от высоты солнца над горизонтом, облачности и скорости ветра. Ночью, в пасмурную погоду, а также при ветре 12 м/с и более поправка равна нулю.
P - Атмосферное давление - приведенное к уровню моря атмосферное давление.
Po - Атмосферное давление - измеренное на уровне метеостанции атмосферное давление.
Tmin - Минимальная температура - минимум температуры воздуха на высоте 2 м над землей.
Tmax - Максимальная температура - максимум температуры воздуха на высоте 2 м над землей.
R - Количество осадков - Количество выпавших осадков за 3 или 6 часов, мм.
SD - Снежный покров - Высота снежного покрова, см.